Time,TemperatureF,DewpointF,PressureIn,WindDirection,WindDirectionDegrees,WindSpeedMPH,WindSpeedGustMPH,Humidity,HourlyPrecipIn,Conditions,Clouds,dailyrainin,SolarRadiationWatts/m^2,SoftwareType,DateUTC
2013-02-10 00:01:00,28.0,12.0,-100.00,NNW,347,20.0,35.0,51,0.00,,,0.00,0.000000,,2013-02-10 07:01:00,
2013-02-10 00:11:00,28.0,12.0,-100.00,NNW,347,20.0,35.0,51,0.00,,,0.00,0.000000,,2013-02-10 07:11:00,
2013-02-10 00:42:00,27.0,14.0,-100.00,NNW,343,20.0,37.0,58,0.00,,,0.00,0.000000,,2013-02-10 07:42:00,
2013-02-10 00:52:00,27.0,14.0,-100.00,NNW,343,20.0,37.0,58,0.00,,,0.00,0.000000,,2013-02-10 07:52:00,
2013-02-10 01:01:00,27.0,14.0,-100.00,NNW,343,20.0,37.0,58,0.00,,,0.00,0.000000,,2013-02-10 08:01:00,
2013-02-10 01:11:00,27.0,14.0,-100.00,NNW,343,20.0,37.0,58,0.00,,,0.00,0.000000,,2013-02-10 08:11:00,
2013-02-10 01:43:00,29.0,15.0,-100.00,North,355,16.0,36.0,56,0.00,,,0.00,0.000000,,2013-02-10 08:43:00,
2013-02-10 01:52:00,29.0,15.0,-100.00,North,355,16.0,36.0,56,0.00,,,0.00,0.000000,,2013-02-10 08:52:00,
2013-02-10 02:02:00,29.0,15.0,-100.00,North,355,16.0,36.0,56,0.00,,,0.00,0.000000,,2013-02-10 09:02:00,
2013-02-10 02:11:00,29.0,15.0,-100.00,North,355,16.0,36.0,56,0.00,,,0.00,0.000000,,2013-02-10 09:11:00,
2013-02-10 02:32:00,27.0,18.0,-100.00,NNW,341,20.0,39.0,68,0.00,,,0.00,0.000000,,2013-02-10 09:32:00,
2013-02-10 02:42:00,27.0,18.0,-100.00,NNW,341,20.0,39.0,68,0.00,,,0.00,0.000000,,2013-02-10 09:42:00,
2013-02-10 02:52:00,27.0,18.0,-100.00,NNW,341,20.0,39.0,68,0.00,,,0.00,0.000000,,2013-02-10 09:52:00,
2013-02-10 03:01:00,27.0,18.0,-100.00,NNW,341,20.0,39.0,68,0.00,,,0.00,0.000000,,2013-02-10 10:01:00,
2013-02-10 03:11:00,27.0,18.0,-100.00,NNW,341,20.0,39.0,68,0.00,,,0.00,0.000000,,2013-02-10 10:11:00,
2013-02-10 03:42:00,29.0,16.0,-100.00,NNW,337,21.0,37.0,57,0.00,,,0.00,0.000000,,2013-02-10 10:42:00,
2013-02-10 03:52:00,29.0,16.0,-100.00,NNW,337,21.0,37.0,57,0.00,,,0.00,0.000000,,2013-02-10 10:52:00,
2013-02-10 04:01:00,29.0,16.0,-100.00,NNW,337,21.0,37.0,57,0.00,,,0.00,0.000000,,2013-02-10 11:01:00,
2013-02-10 04:11:00,29.0,16.0,-100.00,NNW,337,21.0,37.0,57,0.00,,,0.00,0.000000,,2013-02-10 11:11:00,
2013-02-10 04:32:00,28.0,14.0,-100.00,NNW,345,17.0,40.0,56,0.00,,,0.00,0.000000,,2013-02-10 11:32:00,
2013-02-10 04:42:00,28.0,14.0,-100.00,NNW,345,17.0,40.0,56,0.00,,,0.00,0.000000,,2013-02-10 11:42:00,
2013-02-10 04:52:00,28.0,14.0,-100.00,NNW,345,17.0,40.0,56,0.00,,,0.00,0.000000,,2013-02-10 11:52:00,
2013-02-10 05:02:00,28.0,14.0,-100.00,NNW,345,17.0,40.0,56,0.00,,,0.00,0.000000,,2013-02-10 12:02:00,
2013-02-10 05:12:00,28.0,14.0,-100.00,NNW,345,17.0,40.0,56,0.00,,,0.00,0.000000,,2013-02-10 12:12:00,
2013-02-10 08:32:00,31.0,16.0,-100.00,NNW,328,14.0,22.0,53,-99.99,,,0.00,58.000000,,2013-02-10 15:32:00,
2013-02-10 08:42:00,31.0,16.0,-100.00,NNW,328,14.0,22.0,53,-99.99,,,0.00,58.000000,,2013-02-10 15:42:00,
2013-02-10 08:52:00,31.0,16.0,-100.00,NNW,328,14.0,22.0,53,-99.99,,,0.00,58.000000,,2013-02-10 15:52:00,
2013-02-10 09:02:00,31.0,16.0,-100.00,NNW,328,14.0,22.0,53,-99.99,,,0.00,58.000000,,2013-02-10 16:02:00,
2013-02-10 09:11:00,31.0,16.0,-100.00,NNW,328,14.0,22.0,53,-99.99,,,0.00,58.000000,,2013-02-10 16:11:00,
2013-02-10 09:32:00,32.0,15.0,-100.00,NW,310,9.0,20.0,49,0.00,,,0.00,127.000000,,2013-02-10 16:32:00,
2013-02-10 09:42:00,32.0,15.0,-100.00,NW,310,9.0,20.0,49,0.00,,,0.00,127.000000,,2013-02-10 16:42:00,
2013-02-10 09:52:00,32.0,15.0,-100.00,NW,310,9.0,20.0,49,0.00,,,0.00,127.000000,,2013-02-10 16:52:00,
2013-02-10 10:02:00,32.0,15.0,-100.00,NW,310,9.0,20.0,49,0.00,,,0.00,127.000000,,2013-02-10 17:02:00,
2013-02-10 10:11:00,32.0,15.0,-100.00,NW,310,9.0,20.0,49,0.00,,,0.00,127.000000,,2013-02-10 17:11:00,
2013-02-10 10:32:00,32.0,14.0,-100.00,NW,320,10.0,21.0,46,0.00,,,0.00,193.000000,,2013-02-10 17:32:00,
2013-02-10 10:42:00,32.0,14.0,-100.00,NW,320,10.0,21.0,46,0.00,,,0.00,193.000000,,2013-02-10 17:42:00,
2013-02-10 10:52:00,32.0,14.0,-100.00,NW,320,10.0,21.0,46,0.00,,,0.00,193.000000,,2013-02-10 17:52:00,
2013-02-10 11:02:00,32.0,14.0,-100.00,NW,320,10.0,21.0,46,0.00,,,0.00,193.000000,,2013-02-10 18:02:00,
2013-02-10 11:11:00,32.0,14.0,-100.00,NW,320,10.0,21.0,46,0.00,,,0.00,193.000000,,2013-02-10 18:11:00,
2013-02-10 11:42:00,31.0,13.0,-100.00,NW,320,14.0,27.0,46,0.00,,,0.00,200.000000,,2013-02-10 18:42:00,
2013-02-10 11:52:00,31.0,13.0,-100.00,NW,320,14.0,27.0,46,0.00,,,0.00,200.000000,,2013-02-10 18:52:00,
2013-02-10 12:02:00,31.0,13.0,-100.00,NW,320,14.0,27.0,46,0.00,,,0.00,200.000000,,2013-02-10 19:02:00,
2013-02-10 12:11:00,31.0,13.0,-100.00,NW,320,14.0,27.0,46,0.00,,,0.00,200.000000,,2013-02-10 19:11:00,
2013-02-10 12:32:00,29.0,11.0,-100.00,NNW,327,13.0,25.0,47,0.00,,,0.00,186.000000,,2013-02-10 19:32:00,
2013-02-10 12:43:00,29.0,11.0,-100.00,NNW,327,13.0,25.0,47,0.00,,,0.00,186.000000,,2013-02-10 19:43:00,
2013-02-10 12:52:00,29.0,11.0,-100.00,NNW,327,13.0,25.0,47,0.00,,,0.00,186.000000,,2013-02-10 19:52:00,
2013-02-10 13:02:00,29.0,11.0,-100.00,NNW,327,13.0,25.0,47,0.00,,,0.00,186.000000,,2013-02-10 20:02:00,
2013-02-10 13:11:00,29.0,11.0,-100.00,NNW,327,13.0,25.0,47,0.00,,,0.00,186.000000,,2013-02-10 20:11:00,
2013-02-10 13:42:00,30.0,11.0,-100.00,WNW,297,12.0,25.0,44,0.00,,,0.00,300.000000,,2013-02-10 20:42:00,
2013-02-10 13:52:00,30.0,11.0,-100.00,WNW,297,12.0,25.0,44,0.00,,,0.00,300.000000,,2013-02-10 20:52:00,
2013-02-10 14:02:00,30.0,11.0,-100.00,WNW,297,12.0,25.0,44,0.00,,,0.00,300.000000,,2013-02-10 21:02:00,
2013-02-10 14:11:00,30.0,11.0,-100.00,WNW,297,12.0,25.0,44,0.00,,,0.00,300.000000,,2013-02-10 21:11:00,
2013-02-10 14:32:00,33.0,11.0,-100.00,NW,322,11.0,30.0,40,0.00,,,0.00,435.000000,,2013-02-10 21:32:00,
2013-02-10 14:42:00,33.0,11.0,-100.00,NW,322,11.0,30.0,40,0.00,,,0.00,435.000000,,2013-02-10 21:42:00,
2013-02-10 14:52:00,33.0,11.0,-100.00,NW,322,11.0,30.0,40,0.00,,,0.00,435.000000,,2013-02-10 21:52:00,
2013-02-10 15:02:00,33.0,11.0,-100.00,NW,322,11.0,30.0,40,0.00,,,0.00,435.000000,,2013-02-10 22:02:00,
2013-02-10 15:11:00,33.0,11.0,-100.00,NW,322,11.0,30.0,40,0.00,,,0.00,435.000000,,2013-02-10 22:11:00,
2013-02-10 15:42:00,31.0,8.0,-100.00,WNW,302,15.0,28.0,37,0.00,,,0.00,467.000000,,2013-02-10 22:42:00,
2013-02-10 15:53:00,31.0,8.0,-100.00,WNW,302,15.0,28.0,37,0.00,,,0.00,467.000000,,2013-02-10 22:53:00,
2013-02-10 16:02:00,31.0,8.0,-100.00,WNW,302,15.0,28.0,37,0.00,,,0.00,467.000000,,2013-02-10 23:02:00,
2013-02-10 16:11:00,31.0,8.0,-100.00,WNW,302,15.0,28.0,37,0.00,,,0.00,467.000000,,2013-02-10 23:11:00,
2013-02-10 16:32:00,28.0,6.0,-100.00,NW,304,12.0,26.0,39,0.00,,,0.00,283.000000,,2013-02-10 23:32:00,
2013-02-10 16:42:00,28.0,6.0,-100.00,NW,304,12.0,26.0,39,0.00,,,0.00,283.000000,,2013-02-10 23:42:00,
2013-02-10 16:52:00,28.0,6.0,-100.00,NW,304,12.0,26.0,39,0.00,,,0.00,283.000000,,2013-02-10 23:52:00,
2013-02-10 17:02:00,28.0,6.0,-100.00,NW,304,12.0,26.0,39,0.00,,,0.00,283.000000,,2013-02-11 00:02:00,
2013-02-10 17:11:00,28.0,6.0,-100.00,NW,304,12.0,26.0,39,0.00,,,0.00,283.000000,,2013-02-11 00:11:00,
2013-02-10 17:42:00,26.0,7.0,-100.00,WNW,295,13.0,23.0,43,0.00,,,0.00,43.000000,,2013-02-11 00:42:00,
2013-02-10 17:52:00,26.0,7.0,-100.00,WNW,295,13.0,23.0,43,0.00,,,0.00,43.000000,,2013-02-11 00:52:00,
2013-02-10 18:01:00,26.0,7.0,-100.00,WNW,295,13.0,23.0,43,0.00,,,0.00,43.000000,,2013-02-11 01:01:00,
2013-02-10 18:11:00,26.0,7.0,-100.00,WNW,295,13.0,23.0,43,0.00,,,0.00,43.000000,,2013-02-11 01:11:00,
2013-02-10 19:42:00,21.0,5.0,-100.00,SW,221,3.0,9.0,49,-99.99,,,0.00,0.000000,,2013-02-11 02:42:00,
2013-02-10 19:52:00,21.0,5.0,-100.00,SW,221,3.0,9.0,49,-99.99,,,0.00,0.000000,,2013-02-11 02:52:00,
2013-02-10 20:02:00,21.0,5.0,-100.00,SW,221,3.0,9.0,49,-99.99,,,0.00,0.000000,,2013-02-11 03:02:00,
2013-02-10 20:11:00,21.0,5.0,-100.00,SW,221,3.0,9.0,49,-99.99,,,0.00,0.000000,,2013-02-11 03:11:00,
2013-02-10 20:32:00,20.0,5.0,-100.00,WSW,254,6.0,10.0,52,0.00,,,0.00,0.000000,,2013-02-11 03:32:00,
2013-02-10 20:42:00,20.0,5.0,-100.00,WSW,254,6.0,10.0,52,0.00,,,0.00,0.000000,,2013-02-11 03:42:00,
2013-02-10 20:52:00,20.0,5.0,-100.00,WSW,254,6.0,10.0,52,0.00,,,0.00,0.000000,,2013-02-11 03:52:00,
2013-02-10 21:01:00,20.0,5.0,-100.00,WSW,254,6.0,10.0,52,0.00,,,0.00,0.000000,,2013-02-11 04:01:00,
2013-02-10 21:11:00,20.0,5.0,-100.00,WSW,254,6.0,10.0,52,0.00,,,0.00,0.000000,,2013-02-11 04:11:00,
2013-02-10 21:32:00,20.0,5.0,-100.00,West,269,5.0,10.0,52,0.00,,,0.00,0.000000,,2013-02-11 04:32:00,
2013-02-10 21:42:00,20.0,5.0,-100.00,West,269,5.0,10.0,52,0.00,,,0.00,0.000000,,2013-02-11 04:42:00,
2013-02-10 21:52:00,20.0,5.0,-100.00,West,269,5.0,10.0,52,0.00,,,0.00,0.000000,,2013-02-11 04:52:00,
2013-02-10 22:01:00,20.0,5.0,-100.00,West,269,5.0,10.0,52,0.00,,,0.00,0.000000,,2013-02-11 05:01:00,
2013-02-10 22:12:00,20.0,5.0,-100.00,West,269,5.0,10.0,52,0.00,,,0.00,0.000000,,2013-02-11 05:12:00,
2013-02-10 22:42:00,19.0,6.0,-100.00,NW,304,6.0,11.0,57,0.00,,,0.00,0.000000,,2013-02-11 05:42:00,
2013-02-10 22:53:00,19.0,6.0,-100.00,NW,304,6.0,11.0,57,0.00,,,0.00,0.000000,,2013-02-11 05:53:00,
2013-02-10 23:02:00,19.0,6.0,-100.00,NW,304,6.0,11.0,57,0.00,,,0.00,0.000000,,2013-02-11 06:02:00,
2013-02-10 23:11:00,19.0,6.0,-100.00,NW,304,6.0,11.0,57,0.00,,,0.00,0.000000,,2013-02-11 06:11:00,
2013-02-10 23:42:00,17.0,4.0,-100.00,West,278,4.0,15.0,57,0.00,,,0.00,0.000000,,2013-02-11 06:42:00,
2013-02-10 23:52:00,17.0,4.0,-100.00,West,278,4.0,15.0,57,0.00,,,0.00,0.000000,,2013-02-11 06:52:00,